Regional Weather Roundup
Issued by NWS

Home | Current Version | Previous Version | Graphics & Text | Print | Product List | Glossary On
Versions: 1 2 3 4 5 6 7 8 9 10 11 12 13 14 15 16 17 18 19 20 21 22 23 24 25 26 27 28
000
ASUS45 KCYS 190010
RWRWY

WYOMING REGIONAL WEATHER ROUNDUP
NATIONAL WEATHER SERVICE CHEYENNE WY
600 PM MDT WED OCT 18 2017

NOTE:  "FAIR" INDICATES FEW OR NO CLOUDS BELOW 12,000 FEET
WITH NO SIGNIFICANT WEATHER AND/OR OBSTRUCTIONS TO VISIBILITY.

WYZ001-190100-
YELLOWSTONE NATIONAL PARK

CITY           SKY/WX    TMP DP  RH WIND       PRES   REMARKS
LK YELLOWSTONE   N/A     46  25  43 W9        30.21S
6HR MIN TEMP:  46; 6HR MAX TEMP:  51;

W YELLOWSTONE  NOT AVBL

$$
WYZ002>013-054>058-071-098>099-190100-
NORTHERN WYOMING

CITY           SKY/WX    TMP DP  RH WIND       PRES   REMARKS
JACKSON        FAIR      58  18  21 W12       30.16F
CODY           FAIR      65  18  16 W5        30.01S
GREYBULL       FAIR      67  18  15 E7        29.94S
6HR MIN TEMP:  60; 6HR MAX TEMP:  72;

WORLAND        FAIR      62  25  24 SE10      29.94F
6HR MIN TEMP:  61; 6HR MAX TEMP:  75;

SHERIDAN       FAIR      60  32  34 S3        29.91F
6HR MIN TEMP:  60; 6HR MAX TEMP:  72;

BUFFALO        FAIR      64   7  10 S12       29.98F
6HR MIN TEMP:  59; 6HR MAX TEMP:  72;

GILLETTE       FAIR      56  28  34 S8        29.97F
6HR MIN TEMP:  56; 6HR MAX TEMP:  72;

HULETT         FAIR      63  27  25 S14       29.99S
NEWCASTLE      FAIR      55  25  30 E15       30.04S

$$
WYZ014>020-022>026-101>103-190100-
CENTRAL WYOMING

CITY           SKY/WX    TMP DP  RH WIND       PRES   REMARKS
BIG PINEY      FAIR      59  15  18 W7        30.20F
6HR MIN TEMP:  54; 6HR MAX TEMP:  66;

PINEDALE       FAIR      59  14  17 NW6       30.21S
DUBOIS         FAIR      54  14  20 NW10      30.15S
LANDER         FAIR      66  16  14 SW6       30.05S
6HR MIN TEMP:  62; 6HR MAX TEMP:  71;

RIVERTON       FAIR      66  11  11 SW9       30.05F
6HR MIN TEMP:  64; 6HR MAX TEMP:  70;

CASPER         FAIR      65   8  10 SW17      30.06S
6HR MIN TEMP:  64; 6HR MAX TEMP:  71;

DOUGLAS        FAIR      61  21  21 SE6       30.06F
6HR MIN TEMP:  61; 6HR MAX TEMP:  72;


$$
WYZ021-027>030-104>119-190100-
SOUTHERN WYOMING

CITY           SKY/WX    TMP DP  RH WIND       PRES   REMARKS
EVANSTON       FAIR      62   7  11 W10       30.23S
6HR MIN TEMP:  59; 6HR MAX TEMP:  67;

KEMMERER       FAIR      59  12  15 W7        30.23F
FORT BRIDGER   FAIR      64   5   9 NW8       30.24F
ROCK SPRINGS   FAIR      61   5  10 SW8       30.20F
6HR MIN TEMP:  58; 6HR MAX TEMP:  65;

DIXON          FAIR      62  12  14 W6        30.23F
RAWLINS        FAIR      61   7  11 SW13      30.20S
6HR MIN TEMP:  61; 6HR MAX TEMP:  67;

SARATOGA       FAIR      57   9  14 W8G20     30.22F
LARAMIE        FAIR      56  11  16 W7        30.21R
6HR MIN TEMP:  56; 6HR MAX TEMP:  68;

CHEYENNE       FAIR      66  13  12 SW10      30.16R
6HR MIN TEMP:  65; 6HR MAX TEMP:  74;

TORRINGTON     FAIR      65  22  19 E13       30.04S
6HR MIN TEMP:  65; 6HR MAX TEMP:  74;

PINE BLUFFS    FAIR      63  21  20 E7        30.12S

$$




USA.gov is the U.S. government's official web portal to all federal, state and local government web resources and services.